Theta_e
283 281 282 283 283 284 282 282 283 282 280 278 278 277 282 280 279 278 282 280 279 281 283 282 282 283 283 282 282 283 283 282 281 280 280 281 280 279 279 279 279 280 280 280 280 279 279 279 278 278 278 278 278 278 278 278 278 277 277 276 275 275 274 275 275 275 275 275 275 274 274 274 273 273 273 272 272 272 272 271 272 272 272 272 272 272 272
280 281 282 282 282 280 281 281 282 282 280 279 281 280 282 282 280 281 281 280 279 281 280 280 281 282 281 281 281 280 281 281 282 281 280 280 279 278 279 279 280 280 280 279 279 279 278 278 278 278 278 278 278 278 278 277 277 277 275 275 275 274 274 274 274 274 274 274 273 273 272 272 272 271 271 271 270 270 270 270 270 270 270 270 270 270 270
279 278 279 280 280 280 281 282 281 280 278 279 280 282 280 280 278 279 278 278 278 282 283 280 281 280 280 280 280 281 281 280 280 279 279 278 278 278 279 279 279 278 278 278 277 277 278 278 278 278 278 278 277 277 277 277 276 276 275 275 274 274 274 273 273 273 273 272 272 271 271 270 269 269 269 268 268 268 268 268 268 268 269 268 269 269 269
277 276 278 278 277 277 276 276 278 276 277 277 279 277 279 278 277 278 276 272 276 282 278 279 280 279 279 280 280 280 280 279 278 278 278 277 277 277 277 277 277 277 277 277 277 277 278 278 278 278 277 277 277 277 276 276 275 274 274 274 273 272 273 272 272 272 271 270 269 268 268 268 267 267 267 266 266 266 266 266 267 267 267 267 267 267 267
275 275 275 275 273 275 275 276 278 277 278 280 280 278 278 280 281 274 272 275 281 280 278 278 278 279 278 277 279 280 278 277 278 278 278 277 277 277 277 277 277 277 277 277 278 278 277 278 278 278 278 277 277 277 275 275 274 273 272 272 271 271 271 270 270 270 268 267 266 266 266 266 265 265 265 265 265 264 264 265 265 265 266 265 265 265 265
271 272 272 273 271 268 274 278 279 280 277 278 276 277 278 278 278 275 279 278 276 275 277 277 278 278 277 279 279 278 280 279 277 277 277 277 278 277 277 278 278 278 278 277 278 278 278 278 278 278 277 278 276 275 274 273 272 271 271 270 270 269 269 269 268 268 267 265 265 264 264 264 264 264 263 263 263 263 264 264 264 264 263 264 264 264 264
270 270 271 271 268 272 278 274 276 276 278 278 277 277 276 276 277 278 276 276 276 278 279 279 279 278 276 274 276 276 275 277 278 277 277 276 276 277 277 277 277 277 278 277 277 276 276 276 276 275 275 274 274 273 272 271 270 269 269 269 268 269 268 267 266 265 265 264 264 264 263 263 262 262 262 262 262 263 262 263 262 262 262 262 262 262 262
271 270 273 268 270 278 276 277 276 277 276 275 275 273 276 276 276 277 276 278 279 279 279 277 274 274 273 275 275 274 274 275 276 275 276 275 275 275 276 276 276 276 277 277 278 277 276 275 275 274 274 273 272 271 269 270 268 268 267 267 267 267 266 265 264 266 264 263 262 262 263 261 261 261 261 261 261 262 262 262 262 262 262 261 261 261 262
271 273 271 274 277 277 279 279 273 275 274 274 273 268 273 278 275 276 276 277 278 278 276 273 273 274 274 274 275 275 275 275 275 276 276 276 276 276 277 277 278 278 279 278 278 276 275 274 274 273 273 271 270 269 268 267 266 266 266 265 266 266 264 264 264 264 264 262 261 261 261 260 260 260 261 260 260 261 260 260 261 260 260 260 261 261 261
277 270 272 269 268 269 274 280 276 278 277 276 276 274 268 273 268 274 276 276 278 274 271 272 272 273 273 272 274 276 277 276 276 276 277 276 275 276 276 276 276 277 277 276 275 275 273 272 272 271 270 269 268 267 266 266 264 265 264 265 265 263 263 263 263 263 262 260 260 260 259 259 259 260 260 260 259 260 259 259 259 259 260 260 260 260 260
270 269 270 270 269 271 279 277 276 275 273 275 273 269 266 272 270 273 276 276 274 273 273 272 273 272 267 271 275 276 276 276 276 276 276 276 276 276 276 277 277 276 276 275 274 273 272 271 271 269 267 267 267 266 265 265 264 263 264 264 263 262 263 263 263 261 261 260 259 258 258 259 258 258 258 259 259 259 259 259 259 259 259 259 259 259 259
274 272 270 270 272 271 272 269 272 274 274 275 273 260 260 266 271 271 274 275 273 273 273 273 273 273 267 272 275 276 276 277 277 276 277 276 276 276 276 276 276 276 274 272 272 272 272 271 268 267 266 266 265 266 265 264 263 262 264 263 263 263 263 262 261 260 259 259 258 257 258 258 258 258 259 258 258 258 258 258 258 258 258 258 258 258 259
275 276 271 268 270 273 271 272 274 274 273 272 263 265 267 269 271 272 274 275 275 274 272 273 271 275 277 278 279 275 276 275 276 275 276 277 277 277 276 276 277 274 273 274 274 273 272 269 267 266 265 266 265 264 264 264 262 263 263 263 262 262 262 260 259 259 258 258 257 257 257 257 258 258 258 258 258 257 257 257 257 257 257 257 257 258 258
272 272 270 270 271 272 270 271 276 276 274 263 266 272 272 273 272 273 275 275 274 273 274 274 276 277 278 277 275 274 275 277 278 277 276 275 275 275 275 276 275 274 272 272 270 269 268 267 266 265 264 265 264 264 262 261 261 263 262 262 261 259 259 259 258 256 255 256 256 257 256 256 256 257 257 257 257 257 257 257 256 256 257 257 257 257 258
271 269 267 266 264 273 276 275 274 274 268 269 274 271 273 273 274 274 273 275 275 274 274 275 276 277 276 276 276 275 275 275 276 277 275 275 276 275 274 274 273 273 271 270 270 269 267 265 265 264 263 262 262 261 261 261 262 262 261 260 260 259 258 257 256 255 255 255 256 255 255 256 256 256 256 256 256 256 256 256 256 256 256 257 257 257 257
265 270 266 267 274 274 278 278 273 273 278 276 274 275 272 273 273 274 274 274 275 275 276 275 275 275 276 275 274 274 274 274 275 274 274 274 275 274 274 275 274 272 272 271 269 267 266 264 264 264 263 262 261 260 262 262 262 260 258 259 258 257 256 255 255 254 254 254 255 255 255 255 255 255 255 255 255 255 256 256 256 256 256 256 256 256 256
269 268 274 275 275 277 279 280 278 279 281 277 274 276 276 274 274 274 275 275 275 275 275 276 276 275 276 276 277 275 276 276 275 275 274 275 275 275 275 274 272 271 272 270 268 265 264 263 262 261 260 261 260 259 260 262 260 258 257 256 255 254 254 253 252 253 253 253 253 254 254 254 254 255 255 254 255 254 255 255 255 255 256 256 256 256 256
273 273 275 274 273 276 278 279 279 279 279 279 276 276 275 275 275 275 275 276 276 275 275 275 274 275 276 276 276 275 275 275 275 275 274 273 273 273 272 270 270 270 268 266 266 265 263 262 262 260 259 260 259 259 260 259 258 257 255 253 253 253 252 252 253 253 253 254 254 254 254 255 255 255 255 255 255 255 255 255 255 255 255 255 256 256 257
270 267 273 273 274 274 277 279 279 277 276 278 277 276 277 278 276 275 276 277 277 276 275 275 276 276 276 275 276 276 275 275 275 275 275 275 274 273 272 273 269 267 266 266 265 264 263 261 261 260 258 258 258 258 258 259 258 255 252 253 254 253 253 253 253 252 253 253 254 255 253 255 255 255 255 255 255 255 255 255 255 255 256 257 257 258 259
271 269 272 273 274 274 275 278 278 278 279 277 275 277 277 277 276 276 277 275 275 274 273 275 275 276 276 275 276 276 275 275 275 275 274 274 273 272 272 270 268 267 266 267 265 264 264 262 261 259 258 257 257 256 256 257 254 252 253 253 253 253 252 251 253 252 253 256 256 255 255 254 254 255 255 255 255 255 255 256 256 257 258 259 259 259 260
273 274 273 272 273 274 274 275 276 278 279 278 276 275 275 275 275 275 274 274 277 276 277 276 275 275 275 276 276 276 276 275 275 275 275 274 274 272 269 267 266 268 267 266 265 263 263 261 260 258 257 256 255 256 258 254 253 253 253 254 253 251 251 252 252 254 254 254 254 254 254 254 254 255 255 255 255 256 258 259 259 258 258 259 261 263 264
265 268 273 274 267 268 275 276 278 278 278 276 276 275 273 273 274 274 274 275 275 275 276 276 275 274 275 276 275 274 275 276 276 275 274 273 272 270 268 266 265 266 265 265 263 262 261 260 259 258 256 255 254 257 255 254 253 252 253 252 250 251 252 250 252 252 253 253 252 254 254 254 254 254 259 264 263 261 261 265 268 270 270 266 267 267 267
269 273 275 277 278 277 278 279 279 279 277 276 275 275 276 276 276 276 275 275 275 274 274 275 275 275 276 276 276 275 275 276 276 275 274 272 271 270 266 264 262 264 263 261 260 259 259 258 258 257 256 255 254 254 255 255 254 253 252 252 252 252 251 252 254 254 253 253 254 254 254 254 254 254 255 257 263 265 266 267 268 269 270 271 271 271 269
274 276 277 277 276 277 278 279 278 276 276 276 276 277 277 277 277 276 275 276 276 276 276 274 274 275 275 276 275 274 275 274 273 273 273 273 271 269 265 266 265 263 261 260 260 260 258 257 257 256 255 254 254 254 254 254 254 253 252 252 252 252 252 252 254 255 254 254 254 254 254 254 254 254 254 254 255 261 265 266 267 268 269 270 270 270 270
277 279 276 276 277 278 279 279 277 276 276 276 276 276 276 276 275 275 274 275 275 275 276 277 275 273 274 275 274 274 274 275 274 274 271 269 268 266 265 265 264 264 264 262 260 258 257 256 255 255 255 255 254 253 253 252 252 252 251 251 252 252 252 253 253 255 255 254 254 254 253 253 253 254 253 254 254 254 258 264 266 267 267 268 268 269 269
278 277 276 274 275 277 277 276 276 276 276 274 275 274 274 275 276 273 274 275 275 275 275 275 275 274 272 273 273 273 272 273 269 268 267 266 266 265 264 265 265 264 261 259 258 256 255 255 255 254 254 254 254 254 252 252 252 252 252 252 252 251 252 252 253 253 254 254 254 254 254 254 254 254 254 254 254 255 255 255 257 261 264 265 266 267 268
276 277 275 274 274 276 276 276 278 280 279 275 274 275 275 274 275 275 275 273 273 273 273 274 274 272 269 270 270 269 271 267 264 266 266 266 265 266 265 263 262 260 258 257 256 256 256 255 254 253 255 255 253 253 252 252 251 250 250 252 251 253 255 256 253 254 254 255 254 254 254 254 254 254 254 256 256 255 255 255 254 255 255 258 262 266 265
278 278 278 276 276 278 279 278 278 279 279 278 273 273 274 272 269 269 271 272 271 269 269 268 269 267 270 268 266 267 265 265 267 265 265 265 262 259 259 259 258 257 257 256 255 255 255 254 254 255 255 255 254 253 251 250 250 250 252 252 252 253 253 254 254 254 254 253 254 254 253 254 254 255 255 255 255 255 255 255 255 255 255 256 258 262 266
278 278 278 279 281 281 281 276 274 276 277 277 273 273 270 271 271 271 272 273 273 271 272 269 264 266 269 268 265 267 267 265 265 264 264 261 258 257 256 256 256 255 255 255 254 254 254 253 252 254 254 253 253 253 251 250 250 250 252 252 252 252 253 253 253 253 253 253 253 254 257 257 256 254 255 255 255 255 254 254 254 255 255 256 256 257 260
280 278 276 277 278 278 277 276 277 276 275 274 271 271 272 273 273 273 273 272 270 271 272 271 265 265 264 264 264 267 267 266 266 262 259 257 256 255 255 255 254 254 253 253 253 252 252 252 252 253 254 253 254 253 250 249 251 250 251 253 252 252 253 252 253 253 254 254 254 257 256 255 254 255 254 254 254 254 254 254 255 255 254 254 257 255 255
280 274 275 276 275 275 275 276 277 277 276 274 273 273 270 267 271 273 273 272 269 270 270 268 267 265 262 264 262 259 259 259 259 258 257 256 255 255 255 256 257 256 255 256 255 250 252 252 252 254 254 253 253 252 250 250 250 250 252 252 251 254 256 257 258 256 254 254 253 252 252 253 252 253 253 253 253 253 253 253 253 253 254 254 254 254 255
279 272 271 272 273 273 274 275 275 276 276 275 270 271 273 271 270 271 272 272 271 270 269 264 263 264 263 257 256 256 256 256 255 255 254 254 254 254 253 254 254 255 254 252 252 252 252 252 252 254 254 253 252 252 252 252 250 251 251 253 253 252 254 257 255 256 256 255 253 252 252 251 251 251 252 253 252 252 252 253 253 253 253 253 254 254 255
276 276 274 273 268 266 270 272 273 274 274 274 274 275 275 274 274 274 274 274 271 267 266 266 264 260 256 255 256 255 254 253 253 253 253 252 251 252 252 250 250 251 251 251 251 251 251 252 253 253 252 253 253 253 252 253 253 252 250 250 250 253 254 255 256 254 253 253 252 251 250 251 251 251 251 253 253 253 253 253 253 253 253 253 253 254 256
278 278 279 279 277 275 273 273 273 273 274 275 275 274 274 272 272 272 272 269 265 264 265 264 259 256 256 257 256 255 254 255 253 253 254 253 250 250 250 252 249 248 251 251 251 252 252 253 252 252 253 254 253 253 253 253 252 251 251 250 250 250 250 250 253 252 250 251 251 253 252 252 251 251 252 253 252 252 253 253 253 253 253 253 253 254 257
279 279 279 279 277 276 276 277 276 274 273 273 273 272 272 272 270 269 265 264 265 263 258 257 255 256 256 256 255 255 256 258 257 255 254 253 252 250 250 248 247 248 247 250 251 251 253 253 252 252 252 253 253 253 252 252 251 251 249 249 251 250 250 250 250 249 249 250 250 249 249 249 250 253 254 253 251 253 253 253 253 253 253 253 253 254 255
272 274 274 275 276 274 274 275 276 276 274 274 274 272 270 267 262 261 261 259 256 256 257 256 255 255 256 256 255 255 255 253 251 251 251 252 251 251 250 247 248 247 247 249 252 252 253 251 253 254 252 252 252 252 252 249 248 249 248 248 249 250 250 250 250 249 250 249 249 250 249 252 253 253 253 252 252 251 252 251 252 252 252 252 253 253 254
271 275 276 275 274 268 267 267 260 259 263 265 263 264 260 255 255 254 254 254 255 255 254 254 255 255 256 255 254 252 252 252 253 252 250 248 250 250 249 246 246 247 247 248 249 246 245 245 253 255 254 250 253 251 252 254 250 248 248 249 248 249 249 248 248 248 248 248 249 249 251 251 249 249 251 250 251 251 252 251 252 252 252 252 253 253 253
267 266 269 264 258 256 251 249 250 253 254 252 250 252 253 253 253 253 253 253 253 254 254 255 255 254 252 252 253 252 251 250 249 248 246 246 246 246 245 246 248 246 248 250 246 244 244 248 254 252 249 247 248 250 252 255 255 250 247 247 248 248 249 248 248 249 249 247 250 248 248 248 249 248 249 250 250 250 251 251 251 252 252 252 251 251 252
260 254 252 251 251 251 251 251 248 249 252 254 249 250 251 253 252 252 252 252 252 253 253 252 252 253 254 252 250 248 247 245 245 244 244 243 244 246 248 248 249 249 250 247 246 248 250 251 251 251 250 251 252 252 252 254 255 251 248 247 247 248 248 248 248 249 249 249 248 248 247 248 249 249 250 250 250 251 251 252 252 252 251 251 250 250 250
260 256 253 252 252 251 252 250 249 249 249 250 252 251 252 253 252 252 252 252 252 252 253 253 253 252 251 250 249 248 247 245 244 244 244 243 244 244 245 246 247 248 249 251 251 250 252 253 251 249 250 249 249 249 249 252 254 251 248 248 247 248 248 248 248 247 248 247 249 252 250 249 249 250 251 251 250 250 249 250 249 250 250 250 249 249 250
255 253 252 252 251 251 251 252 251 250 249 250 251 251 251 252 252 253 252 251 251 252 251 250 250 250 249 249 248 247 245 245 243 243 243 243 244 244 245 248 246 244 246 246 247 249 251 252 249 249 249 249 246 251 247 252 251 248 247 247 247 247 247 248 248 249 248 248 249 249 249 250 250 250 250 249 249 248 249 248 249 249 248 249 249 249 249
252 253 253 252 252 251 250 250 250 251 250 250 249 250 249 250 252 250 250 250 249 249 248 249 250 249 247 246 245 245 243 243 242 242 243 246 246 245 246 249 247 247 251 252 251 252 249 248 249 252 249 246 246 252 253 251 247 246 246 246 247 248 248 248 249 249 249 249 249 248 249 250 250 249 249 249 248 248 248 248 248 248 247 248 249 248 248
251 252 251 251 250 249 249 250 250 249 249 249 248 248 248 249 249 249 248 248 248 247 248 246 248 249 247 244 244 244 244 244 243 243 241 243 245 247 248 248 246 249 252 250 249 246 248 246 245 244 250 251 249 252 254 252 247 246 246 247 248 248 248 248 249 249 249 247 249 249 249 249 249 248 248 248 248 247 247 247 247 248 248 248 247 248 248
249 250 250 249 249 250 250 249 250 250 250 249 249 248 248 247 248 248 248 247 247 248 248 246 246 243 244 243 243 244 245 244 244 243 242 246 247 246 245 246 247 248 251 250 248 248 248 247 246 249 253 254 255 255 253 249 250 247 247 249 249 248 249 249 250 249 249 249 250 250 250 250 249 249 247 248 248 247 246 247 247 247 247 247 247 248 248
249 250 250 250 250 250 251 250 250 250 250 249 248 246 245 245 245 244 246 246 246 247 248 247 247 247 245 244 245 245 245 245 244 243 244 245 245 249 244 248 247 247 249 252 249 249 248 248 251 253 254 255 255 255 253 251 251 251 251 249 248 248 249 249 250 250 250 250 250 251 250 250 249 248 247 247 249 248 248 248 248 247 248 248 248 248 248
248 249 249 250 250 249 249 249 249 250 250 249 248 246 244 242 242 242 243 243 244 247 248 248 248 248 248 245 244 246 243 243 243 244 247 248 248 247 244 250 247 251 252 254 250 249 249 253 254 255 255 256 255 254 252 253 253 252 249 250 249 250 250 250 250 250 250 250 251 250 250 249 248 248 247 246 246 247 248 249 249 248 248 247 247 247 248
249 249 248 248 247 247 248 249 249 250 250 250 249 246 245 244 243 243 243 243 243 243 244 247 248 248 248 247 244 243 244 245 246 244 244 245 247 249 250 252 252 253 254 251 250 250 250 251 254 255 256 256 256 251 250 250 251 251 250 249 250 250 250 250 250 250 250 250 250 250 251 250 249 248 248 248 247 248 247 247 247 247 247 248 248 249 249
247 246 246 246 246 246 247 248 249 249 248 249 249 249 246 245 244 243 243 243 243 242 242 241 242 241 241 242 242 243 246 244 245 247 241 242 243 243 244 243 248 252 254 255 255 255 256 256 256 256 256 256 254 252 253 252 252 251 249 250 249 250 250 250 250 250 250 250 250 249 249 248 248 247 247 246 246 246 246 246 247 247 247 247 247 247 247
246 245 244 245 246 246 247 248 248 248 246 245 247 247 246 245 245 246 245 243 243 243 242 240 238 239 238 242 242 242 243 245 248 247 244 241 241 242 245 250 253 254 254 252 251 250 254 255 255 255 255 255 253 252 251 251 252 252 251 251 251 251 251 251 251 250 250 249 249 249 249 249 248 247 247 247 246 247 247 247 247 246 247 247 247 248 248
245 246 247 247 247 247 248 248 248 248 246 246 246 245 245 247 249 246 246 245 245 247 241 239 239 239 241 239 240 243 244 244 247 249 249 248 246 246 249 250 250 254 254 253 250 251 253 255 255 255 255 254 254 254 253 252 252 252 252 252 252 252 252 252 252 252 251 250 249 249 249 249 248 248 248 246 247 247 247 247 246 248 250 249 248 248 247
248 248 247 246 245 244 243 244 246 246 245 245 244 245 247 246 246 248 246 245 242 246 245 244 243 242 239 239 243 241 241 243 245 249 249 248 247 252 253 253 253 254 255 254 253 253 253 251 252 254 254 254 254 254 253 253 253 253 253 253 252 252 252 252 251 250 250 249 249 249 249 248 248 247 246 247 247 247 247 247 247 247 246 246 246 246 246
246 245 244 244 243 242 241 241 242 243 243 244 244 245 244 245 246 245 244 251 244 244 245 244 246 244 241 242 246 245 243 244 245 247 252 251 252 251 252 255 253 253 253 251 250 251 252 253 254 254 254 254 254 253 253 253 253 253 253 253 252 252 252 251 250 250 249 249 249 249 249 248 247 247 247 247 247 247 247 247 247 246 246 246 246 246 246
Wind_Speed
4 3 4 4 3 3 3 7 8 8 7 6 10 4 8 8 10 14 3 5 5 6 9 7 9 9 7 7 8 9 7 3 2 4 7 9 7 5 6 8 9 9 9 9 8 6 7 6 7 7 6 6 5 6 6 6 5 6 3 4 2 2 2 2 0 0 1 1 2 2 2 3 3 3 3 3 3 4 4 4 5 5 5 6 8 9 7
4 4 5 3 6 2 3 5 7 7 6 8 5 9 12 10 8 6 6 4 10 9 7 5 8 5 4 5 5 1 1 5 7 6 6 6 5 7 9 10 11 10 10 7 7 6 6 7 7 7 6 7 8 9 7 3 2 1 3 3 3 3 3 1 1 1 1 2 2 2 3 4 4 5 5 6 6 6 5 4 5 5 6 6 7 8 10
3 1 1 1 2 4 7 10 9 5 3 5 12 11 3 1 5 9 10 10 14 11 7 5 4 4 4 4 6 8 7 5 6 6 5 5 6 7 8 7 8 6 5 5 4 5 7 8 9 9 9 8 5 4 2 2 3 3 4 4 4 4 3 1 1 1 1 2 2 4 4 4 4 5 8 7 7 7 7 8 8 8 8 9 7 8 9
3 1 3 2 2 1 5 10 11 4 5 9 10 8 5 7 11 9 5 6 11 13 2 3 3 4 5 7 7 6 7 4 4 5 5 5 6 7 8 6 4 5 5 5 6 8 8 8 8 7 6 5 4 5 4 3 4 4 5 5 5 3 2 1 2 3 2 3 4 4 4 5 5 5 5 6 7 7 8 9 9 7 8 8 9 9 9
4 1 2 4 3 2 9 17 15 11 13 13 6 2 5 13 9 5 8 13 10 5 1 1 5 7 6 5 6 8 5 3 5 6 6 6 5 6 5 5 6 6 7 8 9 9 7 8 7 8 6 5 6 5 6 5 5 5 5 5 4 3 2 2 3 3 3 3 3 4 4 4 5 5 6 7 7 8 8 6 7 7 8 9 8 8 8
2 2 2 3 3 7 13 1 7 14 13 14 15 13 12 6 7 8 8 8 2 1 4 7 9 6 6 8 8 4 7 7 6 4 4 5 5 4 4 5 6 6 5 6 7 8 8 8 8 6 6 7 4 5 7 5 6 5 6 4 4 3 3 3 2 2 1 2 3 3 4 4 5 5 6 6 6 5 6 7 7 7 6 7 7 7 8
3 0 1 2 10 15 1 2 2 3 6 7 12 8 6 7 9 9 5 6 6 10 9 10 8 4 3 3 5 6 5 5 6 7 6 6 6 6 6 5 6 7 8 7 6 5 7 7 4 5 4 5 7 6 5 6 4 6 4 4 3 3 3 2 1 1 3 3 4 4 4 4 4 5 5 6 7 6 6 7 8 8 8 8 7 6 8
4 3 6 6 8 1 3 3 3 2 3 2 2 4 7 11 12 10 10 12 12 9 9 3 0 2 1 1 3 3 3 4 6 5 5 5 5 5 6 6 6 6 7 8 9 8 4 5 5 4 7 6 7 5 3 6 4 4 4 4 3 2 2 2 2 3 3 4 4 4 4 4 5 6 5 5 7 7 6 6 5 6 7 5 8 9 8
5 4 8 13 4 11 10 10 4 6 6 6 6 7 8 11 6 8 8 11 12 8 3 2 2 1 1 1 5 3 4 4 4 6 6 6 7 7 6 6 8 8 7 7 5 5 6 5 6 6 6 5 6 6 5 4 4 3 3 3 2 2 2 2 2 3 3 3 4 4 4 6 6 6 7 7 6 4 8 7 7 7 7 7 6 8 10
6 5 6 3 2 13 12 8 1 0 3 6 5 4 7 5 2 7 10 10 12 4 2 4 4 2 2 5 8 6 6 4 5 4 4 3 4 5 5 4 4 3 3 2 3 6 7 5 4 4 5 6 6 6 5 3 3 3 3 2 2 2 1 1 1 2 2 2 4 4 4 5 6 6 5 5 5 5 6 8 9 7 7 8 6 7 9
4 2 7 8 10 11 4 4 4 1 0 6 4 1 7 6 6 9 10 8 4 6 8 6 5 5 4 8 8 7 6 5 5 6 7 7 6 5 6 7 7 5 5 5 6 5 6 8 5 4 5 6 6 5 4 3 3 3 2 3 3 2 1 0 0 1 1 2 3 4 5 5 5 7 6 6 6 5 6 6 8 7 7 8 8 7 7
6 5 7 10 4 6 3 3 2 2 3 5 5 2 8 3 5 5 7 8 7 7 6 9 9 9 8 8 8 5 8 9 8 8 8 6 6 7 5 4 4 5 6 8 5 7 8 8 5 5 5 5 5 5 4 4 3 3 4 4 3 2 1 0 1 1 1 2 3 4 6 6 5 6 5 6 6 6 6 6 7 7 7 7 10 9 8
11 11 6 3 6 5 3 5 5 3 3 5 4 10 8 3 5 6 7 8 9 8 7 8 8 10 9 9 8 3 5 4 4 5 5 6 6 7 6 6 6 7 8 9 11 12 8 7 6 5 5 5 4 4 5 4 4 3 4 4 3 2 0 1 1 2 2 2 4 4 5 6 6 5 5 7 7 6 7 6 6 7 7 8 9 10 8
11 8 9 9 6 6 6 4 8 7 5 3 10 6 3 9 6 7 8 9 6 7 12 10 9 8 10 5 1 3 6 11 10 8 7 4 1 0 1 6 7 6 7 5 4 4 5 8 7 6 5 6 4 5 4 4 3 4 4 3 2 1 1 1 2 2 3 4 4 5 5 5 6 7 5 6 6 7 6 6 8 9 7 7 8 10 9
2 2 7 3 7 6 13 11 3 2 4 8 4 2 1 5 8 9 7 6 6 8 8 10 11 10 6 6 7 6 6 6 8 9 6 7 9 8 4 4 5 8 8 8 9 9 7 7 6 5 6 6 5 4 4 4 3 4 3 3 1 1 1 2 3 4 4 4 5 4 5 5 6 8 6 6 6 6 7 7 7 9 8 8 9 10 10
7 8 8 11 7 4 14 15 10 6 10 6 6 6 4 3 5 6 5 7 7 8 9 10 9 9 8 6 4 4 5 7 6 5 5 5 5 5 6 8 11 10 10 8 8 5 6 6 5 5 7 6 5 5 5 3 5 3 3 1 1 1 2 3 4 4 4 4 5 5 5 6 6 7 8 6 6 5 6 6 7 8 7 7 8 9 11
9 10 9 2 4 10 9 9 6 9 12 5 7 5 4 5 5 4 6 7 7 9 10 9 9 8 9 11 10 8 11 11 11 10 10 11 11 11 11 10 8 9 12 12 9 7 6 6 5 5 4 7 5 5 3 5 4 4 2 2 1 2 4 4 4 4 4 5 5 5 5 5 6 6 7 5 7 4 5 6 6 8 8 6 8 10 10
3 3 4 1 1 6 10 6 5 7 8 6 4 5 4 4 5 9 7 7 7 8 9 8 7 8 9 9 9 8 8 8 9 8 6 5 6 6 5 4 8 9 5 5 7 9 6 6 6 4 4 5 6 4 4 4 3 3 3 2 2 4 4 4 5 4 5 5 5 5 6 5 6 6 7 7 6 6 5 6 6 7 8 7 8 9 10
2 7 2 7 6 4 7 12 9 4 4 6 5 5 7 6 5 7 5 6 7 9 9 11 12 11 11 10 10 8 7 8 9 9 10 10 10 11 12 12 8 7 7 8 9 10 10 6 6 5 5 4 4 4 4 4 3 3 3 3 4 4 5 5 4 4 5 5 5 5 5 5 5 5 6 6 6 6 5 7 7 7 8 8 9 9 10
7 7 4 3 1 1 5 9 8 9 12 8 4 7 6 6 3 5 8 6 5 4 5 10 10 12 10 9 10 9 9 10 10 10 10 11 7 9 8 6 9 8 9 11 11 10 11 9 6 6 5 4 4 4 3 3 4 3 4 4 4 5 5 4 4 4 5 6 6 5 5 5 6 6 6 6 6 7 6 7 8 8 8 9 9 9 9
6 1 2 2 1 2 5 6 7 10 9 6 5 7 6 6 6 7 4 4 7 6 10 9 9 9 11 10 10 10 10 9 8 9 11 11 12 9 9 9 10 13 12 11 11 11 8 6 7 6 5 4 4 4 4 4 4 4 4 4 4 4 4 4 5 4 4 5 5 6 6 5 6 6 7 7 8 8 8 8 8 8 8 8 10 10 9
4 7 8 6 2 5 8 10 13 14 11 6 6 5 5 6 8 7 6 7 7 8 8 7 7 9 11 11 8 9 11 12 11 10 10 9 7 6 6 6 9 8 8 10 10 10 7 7 7 7 5 4 4 4 4 4 5 5 4 4 3 4 4 4 4 4 4 5 5 6 6 7 7 6 9 14 11 8 8 13 19 21 18 12 11 9 9
7 6 8 10 12 7 6 9 10 9 6 6 7 9 10 10 9 8 7 8 8 7 10 8 9 11 12 13 10 9 10 12 11 9 7 6 6 9 9 9 7 10 9 7 7 7 8 6 7 6 5 4 4 4 5 5 5 5 4 4 3 4 3 4 4 4 4 5 5 5 6 6 6 7 9 8 14 17 17 16 17 19 19 21 22 21 14
2 6 10 8 5 8 10 9 6 5 6 9 11 12 12 12 11 8 9 10 11 10 9 8 10 13 12 12 9 10 11 10 8 9 9 9 9 8 8 11 12 11 9 9 11 11 7 8 7 6 4 4 4 4 4 4 5 5 5 5 4 4 4 4 4 4 4 5 5 6 6 5 5 6 7 10 12 11 12 14 16 18 18 18 16 15 18
12 8 2 4 7 8 10 8 5 6 7 9 9 12 12 10 9 7 9 10 9 11 10 11 8 10 12 12 9 11 12 12 11 10 7 6 6 9 10 9 11 14 13 9 6 6 7 6 5 5 5 4 4 4 5 5 5 5 5 5 5 4 4 4 3 5 5 5 5 5 5 6 5 5 6 6 9 14 15 17 17 13 11 11 11 15 19
6 5 2 4 4 9 7 2 7 10 8 7 7 6 6 8 9 6 9 11 11 9 10 11 11 8 9 11 9 9 8 10 5 4 5 7 6 5 9 13 10 6 6 7 6 6 6 6 6 5 5 5 5 5 4 5 5 5 6 6 5 4 4 3 4 4 5 5 5 5 5 5 5 6 5 5 7 8 10 13 18 20 13 7 9 14 17
5 6 4 1 4 11 7 10 14 13 8 6 10 10 9 7 10 10 9 8 9 8 9 11 10 7 4 7 8 6 8 4 2 5 6 7 10 10 7 5 8 9 9 8 7 7 8 6 5 5 7 5 5 5 5 5 5 5 5 6 4 5 6 5 4 5 5 5 5 5 5 5 5 5 6 6 6 6 7 8 9 10 12 18 19 19 18
9 9 11 11 13 15 14 12 11 13 13 8 6 8 9 6 5 6 8 9 7 7 9 8 7 6 8 6 6 6 2 5 9 6 6 8 4 4 5 6 8 8 8 8 7 6 6 6 6 6 8 5 5 6 5 5 5 6 6 5 4 3 3 3 4 4 5 5 5 5 5 6 6 5 5 5 6 6 6 6 7 8 11 11 11 18 24
10 10 8 12 15 16 12 2 4 8 12 9 5 6 4 5 8 9 11 11 10 7 8 7 6 7 8 7 5 7 7 6 6 8 8 5 6 5 6 7 7 6 7 6 6 6 6 5 6 7 8 5 6 6 6 6 5 6 6 5 4 4 3 3 4 4 5 5 5 5 7 6 5 5 5 6 6 5 6 6 7 7 8 9 11 13 13
13 5 6 10 12 10 8 9 11 10 10 8 5 7 8 9 10 11 11 11 7 9 12 8 5 7 7 6 7 9 10 11 9 4 5 5 6 6 7 8 8 6 4 4 6 6 7 7 8 9 8 5 6 6 6 6 6 5 6 6 4 4 3 3 4 5 5 5 5 7 5 4 4 5 5 5 5 5 6 6 7 7 8 8 8 8 11
9 4 10 10 11 9 11 15 14 11 10 9 9 8 7 6 9 11 12 10 6 8 8 8 9 6 5 8 5 2 1 3 4 5 5 5 5 6 7 8 10 9 9 8 7 6 8 7 7 8 5 5 6 6 6 6 5 5 5 4 4 6 8 9 7 5 5 4 5 4 4 4 4 5 6 6 5 5 5 5 6 6 7 7 7 8 8
12 7 8 7 9 10 11 10 10 11 12 9 6 9 12 11 12 15 15 11 11 12 10 6 6 10 8 4 5 5 4 5 5 5 5 4 4 3 4 3 1 2 3 4 4 5 5 5 7 8 4 5 5 5 6 6 4 6 6 4 4 3 4 8 5 6 5 6 5 4 6 4 5 5 5 6 5 5 5 5 6 6 6 6 7 7 8
8 11 10 11 6 4 7 9 10 12 12 11 12 14 13 12 12 13 13 11 8 6 7 9 7 4 6 6 6 6 6 5 4 5 5 4 3 2 2 1 1 1 1 2 2 3 4 6 7 3 4 5 5 5 5 5 5 6 5 5 4 4 4 5 6 5 4 5 5 5 5 6 6 6 6 6 6 6 5 5 6 6 6 7 7 7 7
15 16 17 15 10 12 13 14 11 12 12 11 11 10 10 9 10 11 11 8 5 5 8 7 5 6 7 8 7 7 8 8 5 4 5 4 2 1 1 1 0 1 2 1 2 3 4 6 5 5 4 4 5 5 5 5 6 6 5 5 5 5 4 4 5 4 4 6 7 6 5 6 5 5 6 6 5 5 6 5 6 6 6 7 7 7 11
10 11 10 12 9 9 11 12 12 11 12 13 11 10 10 10 9 9 4 4 6 5 2 6 6 7 8 8 8 7 7 6 5 5 5 4 3 3 3 2 1 1 3 4 5 6 6 7 6 6 5 4 5 5 5 6 6 6 5 5 5 5 5 5 4 5 5 6 4 5 5 5 6 5 6 5 4 6 5 6 5 6 5 7 7 6 8
5 7 8 10 10 9 9 11 12 10 10 11 12 9 6 6 5 4 5 3 3 5 6 6 7 7 7 7 7 7 6 4 5 5 5 4 4 4 3 1 1 2 4 7 6 6 6 5 6 7 5 5 5 5 6 5 5 5 4 5 4 5 5 4 5 4 5 4 5 6 5 6 6 6 5 4 4 4 5 5 5 5 5 6 6 7 7
6 9 10 10 9 5 7 7 4 3 4 3 3 1 2 2 4 3 5 6 4 5 6 7 8 7 7 4 5 5 5 6 5 6 4 4 4 3 3 1 1 3 2 5 4 1 1 2 4 7 5 4 4 4 5 6 5 5 4 6 4 4 5 6 4 5 5 4 5 6 7 6 4 4 6 4 5 5 5 5 6 6 5 5 5 6 8
5 5 8 5 1 1 1 2 1 1 3 7 5 4 4 6 6 6 6 6 5 5 5 5 6 7 7 7 6 7 7 5 5 5 5 4 3 3 1 3 5 3 4 6 2 1 1 1 2 2 1 3 4 4 4 6 6 5 5 5 5 5 6 5 5 6 6 5 7 5 5 5 6 5 4 4 5 5 5 5 5 5 5 5 5 5 7
2 1 3 3 4 5 6 4 4 4 1 8 6 5 4 7 7 8 8 6 5 5 8 8 8 8 7 8 6 5 4 4 4 4 3 3 2 4 5 5 6 6 6 2 1 3 4 4 5 5 5 6 6 5 6 7 7 6 6 5 4 5 5 5 5 6 6 6 4 5 5 6 5 4 4 5 5 5 6 6 5 6 5 5 6 6 6
3 3 3 3 4 3 5 6 6 6 4 3 6 8 5 8 7 8 8 7 4 4 6 7 8 8 6 6 6 5 3 3 3 4 4 3 2 1 3 6 9 9 7 8 7 5 7 9 6 5 6 6 6 7 6 6 6 5 5 5 6 6 6 6 5 5 6 4 6 6 5 6 4 5 5 5 5 5 5 5 5 5 5 6 6 6 7
2 4 3 5 5 4 5 6 6 6 6 6 5 5 4 5 7 8 8 6 4 4 5 4 6 6 5 5 5 5 4 3 4 3 3 3 1 1 2 7 3 2 4 3 3 5 6 6 4 6 6 5 4 5 6 6 5 5 5 5 5 6 6 5 5 6 6 6 7 6 5 4 4 4 5 4 4 4 5 5 5 5 5 6 6 6 6
3 4 6 6 5 6 6 6 7 8 8 7 5 5 5 3 5 7 7 7 5 5 6 5 5 6 5 4 4 3 1 1 1 2 3 4 4 3 3 5 2 2 2 4 4 5 4 4 5 5 6 5 5 6 6 5 5 4 5 5 6 5 5 5 6 6 6 6 5 5 5 4 5 5 4 5 4 5 5 5 5 5 6 6 6 6 6
4 5 6 7 6 5 6 6 8 9 8 7 7 5 5 6 8 7 6 5 5 5 7 5 5 5 4 4 3 1 0 0 1 0 2 6 7 7 6 5 4 5 5 5 4 3 5 6 5 4 5 6 5 7 7 5 4 5 5 5 6 5 5 6 6 5 5 4 5 5 5 5 5 5 5 5 5 5 4 5 6 6 6 6 6 6 6
4 5 6 7 7 6 7 8 8 7 9 6 5 5 6 5 4 5 5 5 4 4 6 4 5 3 3 3 2 1 1 1 1 1 2 6 6 4 7 7 6 6 6 5 3 4 5 4 4 6 7 8 8 7 6 3 4 4 4 5 5 5 5 5 5 5 5 5 5 5 5 6 5 5 4 5 5 5 4 5 5 6 6 6 6 6 6
4 5 6 7 7 7 7 6 8 8 7 6 6 6 5 5 4 4 5 4 4 3 3 3 3 2 3 2 2 2 1 1 2 3 0 2 2 5 1 4 5 3 5 6 4 4 4 5 5 7 6 7 7 7 4 4 4 4 4 5 5 5 5 5 6 5 5 5 5 5 5 5 5 5 5 6 6 5 6 6 6 6 6 6 6 6 6
6 5 6 7 8 6 6 7 7 8 8 8 7 5 4 3 3 3 3 4 3 2 2 2 2 2 2 3 1 1 2 3 5 4 6 5 4 4 1 2 4 4 8 8 4 5 5 6 8 7 8 7 7 6 4 4 4 4 4 5 5 6 5 5 5 5 5 5 5 5 5 5 4 5 5 5 5 5 6 7 7 6 6 6 6 6 6
5 5 5 6 6 5 6 6 6 7 7 7 7 4 2 2 2 2 1 1 1 1 0 0 1 1 1 3 4 1 2 4 4 3 5 5 5 5 7 6 6 8 7 5 5 5 5 5 6 7 7 7 7 4 4 4 5 5 5 4 5 5 5 5 5 5 5 5 6 6 5 6 6 5 6 5 5 5 5 6 6 7 6 7 6 7 7
6 6 4 4 7 5 6 6 6 6 5 6 4 5 2 2 2 2 1 1 1 1 1 2 3 3 3 4 4 3 4 2 1 3 2 4 5 4 3 3 5 6 7 7 7 6 8 8 8 8 7 7 5 4 3 4 4 5 4 5 5 5 5 5 5 5 5 5 5 5 5 5 5 5 5 5 6 6 6 6 7 7 6 6 6 6 6
5 6 5 5 5 7 6 6 6 6 5 3 4 3 2 3 3 4 3 3 4 1 1 1 2 3 2 4 3 4 4 4 4 2 1 4 3 3 5 4 7 7 7 5 5 6 6 8 7 7 7 6 4 4 4 4 4 5 5 5 5 5 5 5 5 5 5 5 5 5 5 6 5 5 5 5 6 5 7 7 7 6 7 6 6 7 6
4 4 5 4 4 5 4 5 5 5 4 4 5 2 1 2 5 1 1 1 1 1 1 2 3 2 3 2 2 3 4 4 5 6 4 4 4 3 4 4 5 6 6 6 4 5 5 6 6 6 5 3 3 4 4 4 4 5 5 5 5 5 5 6 5 6 6 6 5 5 5 5 6 5 6 5 6 6 6 6 7 8 10 8 8 6 6
4 5 4 4 4 3 3 4 4 5 5 4 4 1 2 4 3 1 1 1 1 2 2 4 3 1 2 2 3 2 3 4 5 5 4 4 2 4 5 4 4 4 5 4 3 4 4 3 3 4 4 3 3 3 4 4 4 5 5 5 5 5 5 5 5 5 5 5 5 5 5 5 5 6 6 6 6 6 7 7 7 6 6 6 6 6 6
5 4 4 3 4 4 4 3 3 4 3 3 3 3 3 2 2 1 1 1 1 0 0 2 2 1 0 2 3 2 0 1 3 2 4 4 3 4 5 4 3 4 4 4 4 4 3 4 4 4 4 3 3 4 4 5 5 5 5 5 5 5 5 5 5 5 5 5 5 6 6 6 5 6 6 6 6 7 7 7 7 6 6 6 6 6 6
Wind_Direction
200 175 187 174 167 208 192 209 220 213 175 155 184 210 218 175 203 250 247 158 201 241 236 200 211 217 214 206 225 222 221 242 210 193 207 209 205 184 179 195 196 196 197 202 201 194 198 190 192 199 202 207 210 216 219 216 201 212 190 176 166 141 112 123 155 99 329 352 20 3 14 15 17 3 347 328 322 321 317 319 324 323 325 327 325 321 318
158 223 178 174 180 208 270 244 237 226 169 196 177 217 228 209 232 262 272 274 248 239 244 194 218 214 190 225 240 289 256 237 235 222 221 211 193 190 199 201 200 201 202 195 193 189 189 195 198 200 203 206 207 209 219 217 216 204 123 155 139 117 119 145 109 59 35 18 13 12 18 11 5 351 341 337 333 333 333 328 329 329 332 331 322 322 325
229 219 2 64 165 187 235 251 255 262 83 163 207 232 233 59 283 264 261 264 270 266 244 219 249 193 234 282 272 257 248 238 223 216 216 205 201 208 212 209 209 204 199 196 185 189 200 200 203 200 204 208 205 214 213 177 184 175 133 128 114 127 137 140 99 60 63 26 14 20 9 3 356 352 346 342 340 337 338 340 338 340 337 330 335 331 327
267 137 172 141 76 5 243 262 253 145 181 238 235 229 199 209 229 232 251 267 259 262 63 163 244 251 228 229 238 246 246 217 190 196 207 202 209 212 212 211 195 194 198 195 197 204 209 210 208 207 207 201 185 207 179 152 135 118 116 122 128 131 130 101 65 53 35 22 17 9 6 1 352 346 340 340 338 336 335 335 336 336 332 332 332 331 325
206 169 116 139 84 353 284 249 235 190 215 236 252 234 191 215 208 187 213 236 239 257 127 211 256 233 241 252 234 235 241 210 197 201 202 206 215 214 202 194 199 202 201 203 204 211 213 213 210 215 196 181 201 181 154 149 132 123 123 129 127 120 104 90 62 53 34 24 11 4 360 352 342 343 342 335 336 336 331 330 326 329 327 329 325 328 325
173 71 156 119 102 236 242 23 147 177 202 218 231 239 227 215 163 207 204 239 267 274 243 233 254 234 220 219 232 200 185 189 202 223 223 221 221 223 214 209 207 212 213 218 217 213 211 214 214 212 190 189 171 146 141 140 132 131 126 123 119 120 106 96 86 78 52 27 13 357 350 346 345 338 338 330 327 323 319 325 324 318 318 316 318 320 322
173 166 79 170 213 237 54 206 296 200 200 211 222 241 251 234 222 235 254 270 242 228 222 230 241 255 258 240 199 209 217 171 173 185 204 212 206 210 209 216 221 219 214 216 211 213 220 211 187 142 135 134 133 129 138 126 124 121 117 122 119 128 122 109 102 61 28 17 0 350 347 341 339 330 327 323 326 325 324 321 321 318 320 319 316 316 314
54 97 197 229 239 92 240 252 185 93 70 141 89 313 262 240 219 206 217 232 241 234 239 247 272 189 240 304 264 230 217 184 160 172 191 209 196 205 213 200 214 202 202 197 193 196 162 144 155 154 149 146 134 135 122 122 120 118 126 119 124 123 97 69 48 30 18 360 350 342 337 336 331 325 323 322 319 321 314 308 299 303 302 305 309 312 309
182 203 191 240 3 313 286 273 170 178 192 171 165 239 256 247 189 180 200 226 244 235 252 149 118 65 56 342 292 263 220 214 210 182 204 194 206 209 221 197 210 207 201 200 188 140 149 155 152 155 146 139 132 129 117 120 119 119 111 101 101 87 83 60 41 18 11 356 335 333 332 326 321 318 320 317 313 313 306 302 305 306 302 305 306 305 306
144 164 244 289 271 251 253 247 164 254 155 150 184 168 284 284 221 191 179 214 234 214 133 154 159 120 74 286 260 249 243 203 208 239 246 245 221 219 224 228 243 230 203 114 124 150 146 150 150 139 141 139 132 123 127 126 112 101 90 116 115 103 100 81 30 16 354 340 327 320 319 310 305 304 304 299 295 303 297 305 303 299 302 302 298 297 298
65 167 220 227 236 249 224 221 191 216 177 129 111 79 279 266 188 205 180 206 212 176 168 168 139 118 196 244 252 256 228 209 203 210 229 225 224 218 210 198 204 192 174 158 147 137 148 155 162 144 138 133 126 132 138 130 116 127 146 149 139 135 139 100 337 330 327 321 307 303 298 292 295 297 298 292 292 292 282 284 287 296 297 297 296 292 288
214 196 221 236 225 250 272 216 245 187 133 117 77 351 275 259 208 178 163 187 194 201 177 150 159 167 207 237 252 219 205 199 200 191 212 221 227 233 216 222 193 159 137 122 139 162 179 177 150 152 140 128 134 145 156 141 149 172 174 156 138 121 131 199 275 290 298 298 293 290 287 290 289 284 288 290 285 285 283 278 286 290 290 290 293 293 292
227 223 260 356 280 277 210 170 173 159 156 84 105 226 236 229 186 198 180 192 197 173 159 165 177 222 198 205 225 191 183 170 233 238 234 219 201 205 195 193 150 152 173 174 180 187 178 155 155 153 141 132 152 158 158 157 187 174 142 129 125 139 145 250 265 276 286 280 283 279 275 281 284 285 282 283 287 285 286 286 280 287 288 289 289 289 289
227 227 241 241 267 235 171 282 154 167 99 202 215 236 194 147 192 203 195 199 203 168 178 188 207 219 224 235 71 168 188 192 206 206 210 193 199 21 183 169 164 167 171 177 154 146 159 159 159 155 148 152 161 162 157 193 189 134 128 129 129 143 234 262 275 288 284 283 270 271 277 281 286 280 271 270 277 282 282 286 291 289 292 292 291 290 287
60 140 234 304 269 267 132 127 59 291 149 232 189 158 222 182 177 176 213 208 215 169 206 210 210 227 238 220 214 210 204 202 205 211 200 192 201 194 159 176 201 169 172 185 191 180 164 163 157 163 146 156 165 159 181 208 149 134 130 132 143 191 259 274 282 281 280 274 277 275 278 274 276 281 280 279 276 276 283 288 287 293 295 295 295 293 292
159 190 193 210 221 118 154 140 171 212 212 189 163 135 198 205 160 179 185 223 208 192 198 211 232 238 243 257 232 226 235 235 245 238 224 222 219 211 212 197 184 179 189 189 181 167 166 165 163 161 154 160 169 175 208 150 142 128 128 133 147 214 256 270 275 278 270 271 270 271 271 276 274 278 283 278 279 275 278 284 294 297 295 295 295 293 296
162 194 213 193 148 160 186 168 189 199 216 180 180 164 181 158 223 179 166 219 214 198 207 220 217 232 232 232 228 207 221 217 219 218 214 209 208 205 204 207 188 184 190 188 176 169 174 169 167 163 161 158 169 186 198 149 145 142 149 153 166 240 256 265 270 265 272 267 268 267 267 266 274 275 279 280 287 273 275 285 284 288 291 292 289 292 292
268 277 205 128 55 163 194 235 205 201 226 236 180 194 203 227 182 165 181 212 207 205 205 208 239 227 235 234 241 230 234 229 230 229 234 234 226 221 207 193 186 195 178 156 165 176 181 181 172 169 167 156 170 205 156 146 142 149 158 168 213 241 251 260 260 264 273 274 267 264 265 259 256 262 271 282 280 288 281 276 274 279 288 287 282 282 283
152 260 148 158 198 191 197 210 234 247 240 230 203 203 212 217 182 193 213 207 210 210 193 199 216 228 228 232 238 235 233 234 236 230 226 226 210 201 200 207 166 160 166 172 186 186 190 192 179 174 168 171 165 145 149 146 151 155 162 187 222 243 256 259 267 263 266 274 277 271 265 264 258 263 267 267 271 275 274 278 277 272 275 279 281 278 280
193 238 227 217 43 203 217 210 212 238 244 231 183 205 214 220 220 194 212 201 232 192 191 210 213 232 234 225 234 236 230 231 230 229 229 230 224 220 207 174 173 172 177 189 193 190 199 187 179 174 175 177 169 153 157 159 157 153 184 199 217 238 248 251 264 263 265 273 277 282 272 269 277 277 265 257 262 263 266 269 279 277 271 274 275 272 271
242 255 263 118 22 334 270 246 241 234 231 212 198 214 221 227 240 247 243 183 217 204 221 214 212 228 244 232 226 228 236 237 235 232 229 224 220 202 175 180 172 183 189 194 196 192 196 170 175 177 186 185 166 165 178 175 162 171 203 217 224 242 252 262 268 266 263 271 274 277 281 269 254 254 270 271 266 266 244 238 242 246 243 238 253 262 270
224 183 214 140 168 245 242 230 228 229 228 209 221 204 214 229 234 239 244 253 233 228 233 223 206 217 238 242 224 228 234 236 236 235 233 229 212 199 193 163 185 188 190 190 185 188 185 170 174 179 189 191 186 182 184 181 167 182 203 213 225 248 251 255 264 272 277 276 273 276 275 284 285 275 256 274 275 273 278 277 276 280 284 286 292 294 291
230 216 208 190 208 230 224 223 227 222 206 187 213 230 231 236 229 226 224 245 261 244 242 224 207 221 230 242 234 228 240 242 239 237 235 219 199 193 173 163 182 191 189 180 171 180 178 166 171 180 189 190 186 199 189 190 176 191 186 200 220 241 252 257 256 263 269 277 277 272 273 279 283 293 303 290 290 288 284 283 287 291 293 293 297 301 302
267 207 215 196 174 216 240 242 226 200 194 189 213 229 232 232 231 221 214 221 229 249 248 231 207 218 229 238 233 233 241 245 243 237 223 212 204 185 178 186 182 179 176 181 186 182 166 168 173 179 193 199 192 204 198 194 183 184 188 187 213 233 232 247 266 274 271 269 276 276 279 277 284 296 301 311 310 299 297 298 300 298 295 299 304 309 310
230 223 176 165 202 234 244 248 240 227 201 183 203 223 224 226 233 215 213 230 228 228 242 255 238 204 220 236 227 225 233 238 231 227 213 189 173 174 189 186 183 188 189 179 158 152 158 160 166 178 198 217 198 209 200 193 176 187 194 192 210 230 232 246 258 268 274 269 271 271 280 288 291 291 299 306 311 316 319 316 310 301 297 303 316 320 322
242 276 102 150 190 233 245 307 289 256 236 191 211 239 236 215 224 217 222 224 233 224 228 240 253 238 198 227 231 230 236 243 235 170 154 178 174 170 187 199 190 154 141 143 147 145 150 160 169 181 212 218 202 211 199 190 184 194 200 203 211 213 227 233 246 262 261 262 265 268 268 275 276 284 280 281 289 300 311 322 330 331 328 309 318 327 322
214 214 130 85 263 256 221 206 245 252 249 197 194 222 222 211 215 220 231 230 231 231 223 233 234 248 220 222 233 227 218 228 139 187 191 185 191 200 188 143 143 144 139 138 143 154 155 162 171 193 225 222 202 201 197 188 186 195 204 211 213 230 238 238 235 249 255 262 264 270 272 272 274 276 278 279 288 295 300 308 315 310 310 318 324 331 331
211 211 177 203 232 243 245 228 230 253 261 242 195 211 228 216 221 237 248 248 248 244 238 232 229 237 237 233 198 232 184 179 207 200 192 200 166 108 134 138 133 134 137 143 153 155 157 166 181 206 235 216 195 197 194 184 184 199 202 208 213 224 226 234 240 243 253 254 258 262 264 269 260 262 271 287 291 284 287 290 285 292 301 305 306 316 324
226 220 198 209 228 239 253 255 191 233 247 253 215 222 209 206 225 224 235 233 231 231 243 241 218 221 225 231 184 213 211 210 205 201 195 151 137 137 132 127 121 125 136 146 151 159 164 174 190 213 238 207 197 197 190 179 187 195 204 205 210 215 227 231 228 245 251 251 252 253 267 272 280 286 282 277 275 279 285 279 283 284 288 301 313 315 322
243 206 172 221 233 246 254 257 245 237 238 244 214 227 215 213 233 240 235 238 223 225 234 229 208 228 213 217 210 206 207 212 206 162 136 144 143 137 131 122 108 92 109 157 185 177 181 191 196 214 227 187 192 195 186 179 194 195 206 207 205 215 225 226 236 243 245 244 246 259 266 276 273 271 279 276 269 275 281 283 285 296 301 302 304 306 312
252 157 195 212 219 222 223 235 241 241 237 234 219 228 235 208 227 244 247 238 222 230 240 218 219 217 200 212 200 170 103 107 122 137 133 136 141 145 146 153 156 184 194 201 193 186 189 197 202 219 206 179 193 191 180 185 194 197 203 209 212 227 236 249 255 241 232 245 255 260 265 264 266 269 273 273 280 279 273 275 285 290 286 291 295 298 301
262 235 225 224 217 217 227 235 239 240 238 230 206 222 226 211 220 233 242 239 226 221 226 215 207 216 206 144 121 113 107 107 109 115 126 126 135 144 153 170 164 132 175 184 179 183 192 197 220 229 191 193 194 191 184 190 188 193 207 207 208 212 234 246 247 261 266 264 260 260 263 266 264 257 262 271 275 274 278 284 290 289 287 293 294 292 298
240 258 263 251 242 227 238 237 225 239 240 233 222 224 226 220 223 232 237 237 238 217 203 216 214 173 139 136 127 121 115 110 104 114 131 142 138 135 123 98 129 154 209 224 214 211 207 222 240 223 198 205 198 196 191 195 194 199 208 200 204 211 211 232 241 244 254 254 255 254 251 252 254 261 260 266 265 271 277 280 283 284 288 284 283 288 292
220 225 235 242 219 211 221 234 225 231 242 241 236 232 232 226 221 229 237 237 220 204 210 207 162 138 137 139 137 131 132 125 132 164 180 169 168 157 117 106 119 208 266 299 273 244 239 240 248 250 234 213 211 205 202 199 200 200 203 194 202 208 218 227 237 243 245 247 246 249 254 259 262 257 259 261 263 270 274 280 280 286 291 288 286 288 297
226 239 242 250 244 215 216 223 228 223 226 239 244 234 230 228 219 227 232 207 215 211 146 115 133 137 135 132 138 147 158 166 164 156 160 157 151 149 131 102 67 16 310 277 246 245 235 240 239 243 243 229 217 216 207 206 195 198 198 198 202 210 217 224 224 228 233 243 247 251 258 250 252 255 256 259 265 268 273 272 275 282 283 292 296 297 298
207 231 244 247 245 232 221 228 232 232 224 227 235 240 236 229 209 197 189 188 85 104 121 124 124 126 129 140 148 160 164 133 118 126 129 135 138 123 111 115 127 290 299 293 265 237 237 236 239 236 231 230 227 228 216 206 200 196 202 193 205 219 220 226 230 234 240 240 249 247 247 251 257 258 261 264 265 267 266 270 274 272 275 280 287 299 300
209 220 236 240 247 240 230 241 269 283 259 253 293 261 139 92 122 93 89 101 107 103 121 127 126 134 141 131 116 104 103 122 122 127 133 123 121 120 127 153 225 236 271 291 278 285 318 266 255 242 225 213 222 219 220 205 198 200 197 198 207 211 225 233 237 235 246 242 238 246 251 260 262 262 262 262 266 262 261 267 272 274 276 278 288 294 299
233 216 239 260 305 89 74 48 15 140 121 78 46 52 117 126 116 110 101 98 105 116 110 110 117 113 113 107 103 108 108 106 114 121 126 121 123 132 192 199 240 201 229 239 244 296 301 260 266 249 228 226 229 236 238 226 215 194 194 201 206 213 221 225 234 238 238 238 238 239 243 247 252 259 257 256 256 258 268 266 271 278 282 288 289 291 291
222 58 66 80 83 90 103 61 39 31 100 141 112 76 79 110 112 109 102 99 103 116 112 112 119 117 122 121 121 115 122 131 124 125 132 139 153 167 219 222 231 218 230 232 249 278 268 272 260 262 260 257 256 254 243 240 230 207 201 202 210 214 220 222 229 233 235 233 234 237 236 242 245 250 262 258 257 262 266 275 278 282 287 290 292 292 293
193 129 130 103 95 103 88 71 50 51 38 65 122 131 141 118 115 112 113 109 98 107 122 129 126 126 132 130 137 145 164 165 156 139 146 136 123 187 284 275 254 251 248 256 264 267 269 273 268 251 245 248 241 241 238 229 223 212 204 207 216 216 221 224 226 234 239 237 238 242 239 241 243 251 255 263 270 272 272 274 279 281 283 283 279 279 285
114 102 91 89 95 86 98 98 81 56 57 64 69 85 89 112 120 111 112 114 100 78 81 100 113 113 128 140 137 136 135 143 144 151 148 119 147 233 262 283 263 223 227 232 237 247 264 265 249 250 254 241 235 226 223 228 220 207 209 210 213 216 224 225 226 227 232 231 231 233 233 234 243 256 255 264 267 269 271 275 274 275 272 278 281 279 278
96 97 97 95 92 94 95 102 107 87 64 54 57 62 59 61 93 111 112 102 92 83 80 68 83 114 128 120 114 106 94 121 126 141 165 181 214 213 251 274 245 242 250 245 258 266 267 273 264 248 246 237 228 233 222 217 210 209 214 220 219 219 222 225 229 232 230 229 232 236 235 237 243 249 253 256 263 264 267 273 278 276 273 267 270 275 281
106 116 110 105 104 103 106 102 96 102 94 65 58 67 76 89 99 100 101 101 107 104 92 88 90 95 100 108 103 78 36 111 92 139 261 246 231 217 214 252 291 295 293 291 271 261 259 257 253 250 244 237 228 232 234 224 203 212 217 223 227 225 224 227 229 233 229 230 237 232 233 237 234 244 249 249 250 259 265 268 269 271 271 270 270 273 273
98 102 113 117 115 115 111 108 108 102 99 82 59 64 74 74 84 103 110 110 100 99 109 107 101 103 111 114 97 54 324 15 39 95 50 332 313 246 208 233 258 270 290 277 285 276 276 259 247 244 248 245 247 242 227 216 216 213 221 225 232 230 231 234 237 229 230 230 230 234 233 232 236 239 238 249 257 261 255 258 258 259 265 268 268 268 274
101 111 118 119 121 118 114 117 120 118 116 116 89 66 65 76 71 86 108 105 114 107 105 112 114 112 133 140 163 200 205 190 177 143 213 298 338 307 221 202 239 258 268 273 278 275 271 267 259 257 256 252 250 251 238 223 219 223 224 226 230 231 233 234 235 234 232 231 234 237 233 232 236 236 238 245 246 254 257 259 262 260 263 268 271 275 275
96 101 115 116 110 106 110 110 108 111 113 106 90 65 49 70 81 68 83 111 108 109 105 132 131 150 145 178 220 263 277 261 235 223 219 195 207 242 227 264 268 264 279 284 274 268 260 260 257 257 260 263 258 253 238 235 225 232 234 232 233 234 235 235 238 241 238 235 240 234 235 239 236 240 234 239 243 250 257 257 261 265 257 262 263 262 265
92 83 72 89 92 91 97 102 108 108 108 102 99 97 65 59 72 72 52 65 99 91 39 356 307 226 198 179 173 215 285 322 302 232 218 243 253 269 270 278 278 282 285 281 268 264 259 261 258 264 266 263 263 246 237 235 237 234 234 239 239 237 240 238 240 240 240 242 239 240 242 237 237 241 242 248 253 254 257 262 265 264 263 261 263 266 270
94 97 89 92 103 105 101 100 100 96 93 114 127 115 116 82 66 45 50 60 60 6 323 296 276 269 266 260 240 226 187 136 45 316 192 207 227 226 260 259 258 265 280 285 284 281 275 269 265 264 261 257 252 245 239 236 236 235 236 238 241 238 239 243 243 239 244 240 238 241 246 247 246 246 246 247 252 250 250 252 258 264 261 257 259 262 264
85 101 103 92 91 93 98 99 98 97 107 110 104 111 109 97 84 67 70 44 37 14 336 309 284 276 265 236 216 226 231 230 179 217 226 183 205 215 244 261 277 285 286 281 281 281 279 279 276 272 271 268 256 248 247 247 243 242 240 242 241 242 239 238 240 240 239 245 242 241 243 249 250 243 248 248 250 255 255 257 256 255 260 261 264 262 261
103 99 88 92 93 91 100 102 98 118 138 117 112 133 132 113 90 44 35 65 34 13 356 313 306 291 281 288 258 238 211 212 243 260 266 258 258 261 269 270 271 272 271 270 268 270 264 268 269 272 269 266 258 257 250 246 242 245 248 249 248 250 241 241 247 244 237 241 241 241 245 247 250 249 248 250 254 257 255 254 259 258 261 261 263 267 268
116 91 113 104 101 92 58 83 126 139 132 130 130 146 92 98 120 104 68 78 60 45 347 325 305 292 308 312 301 265 218 224 232 239 248 261 263 270 264 262 264 274 283 280 279 280 282 274 264 262 262 262 257 255 254 254 252 253 251 252 252 255 256 252 250 252 251 245 249 253 255 257 253 256 256 255 259 261 261 262 261 262 260 260 260 261 266
104 105 95 102 103 91 94 89 85 100 117 113 121 107 96 116 91 41 343 51 125 153 123 38 351 299 262 279 305 313 285 204 227 250 262 263 272 275 276 283 293 298 295 289 286 284 282 283 285 282 276 268 266 266 270 267 266 264 262 261 261 259 257 258 254 254 256 255 255 261 257 255 252 257 262 259 257 259 262 260 262 263 267 265 266 265 269